Loisir ou Compétition : Rejoignez un Club de la Fédération

Résultats

SAMSE NATIONAL TOUR FFS 1 COUPE DE FRANCE

ARVIEUX-BRUNISSARD

FS Hommes

Jury de Compétition

Délégué Technique :
LEBAS QUENTIN ()
D.T. Adjoint :
FINE CHRISTIAN (AP)
Dir. Epreuve :
BARBESIER ARNAUD (AP)

Caractéristiques de la Piste

Piste :
LE PLANET
Distance :
10 km
Point Haut :
 
Point Bas :
 
Montée Tot. :
 
Montée Max. :
 
Homologation :
2018-34-1-FIS

Pénalité Appliquée :
90.0000
Coefficient :
800

Catégorie :
U17
Style :
L
Clt Dos Clt/Cat Code An Nom Prénom Com Club Temps Ecart Points
Classés
1 130 1/U17 FFS2663675 2003 ESSONNIER IVAN SA CS LA FECLAZ 25:52.6 00:00.0 90.00
2 103 2/U17 FFS2681218 2003 ROUTIN HUGO MB PRAZ LYS-SOM 26:06.7 00:14.1 97.27
3 18 3/U17 FFS2656732 2003 BLANC MATHIEU SA CS MERIBEL 26:23.8 00:31.2 106.08
4 14 4/U17 FFS2659978 2004 BOTET MARTIN MV LA BRESSAUDE 26:33.4 00:40.8 111.02
5 125 5/U17 FFS2670579 2003 ALLEMAND NEIL AP AS EDELWEISS 26:37.7 00:45.1 113.24
6 41 6/U17 FFS2675689 2003 MALGRAND HUGO MB PRAZ LYS-SOM 26:40.0 00:47.4 114.42
7 107 7/U17 FFS2670999 2003 BERNAUDON MATHIS AP MTGVE V.CLAR 26:41.5 00:48.9 115.20
8 129 8/U17 FFS2658773 2003 MARSEILLE NATHAN AP GAP-BAYARD 26:42.2 00:49.6 115.56
9 44 9/U17 FFS2665222 2004 DEUFFIC CHARLY DA US AUTRANNAI 26:47.5 00:54.9 118.29
10 4 10/U17 FFS2675463 2003 MISSILLIER CONSTANT MB SC GD BORNAN 26:50.1 00:57.5 119.63
11 95 11/U17 FFS2653739 2003 GALLOIS ROMAN MJ BOIS D'AMONT 26:51.8 00:59.2 120.50
12 127 12/U17 FFS2655786 2003 MOREL FOURRIER TOM MB PRAZ LYS-SOM 26:52.7 01:00.1 120.97
13 97 13/U17 FFS2670858 2004 SICRE PAULIN AU EM LA TOUR 27:13.7 01:21.1 131.79
14 52 14/U17 FFS2666640 2004 LAISSUS MILHAN SA SC MENUIRES 27:18.9 01:26.3 134.47
15 131 15/U17 FFS2670987 2003 VAUTHIER MATHURIN MV LA BRESSAUDE 27:21.5 01:28.9 135.81
16 113 16/U17 FFS2664692 2004 GROS MICHELE MB SC CONTAMINE 27:25.1 01:32.5 137.66
17 86 17/U17 FFS2677441 2004 BUET PIERRE LOIC MJ SMBM/MORBIER 27:26.1 01:33.5 138.18
18 60 18/U17 FFS2670259 2004 BLANCHARD TITOUAN MB CS LA CLUSAZ 27:27.2 01:34.6 138.74
19 85 19/U17 FFS2675692 2004 LEUENBERGER LEO MV SC XONRUPT 27:33.6 01:41.0 142.04
20 111 20/U17 FFS2676132 2004 ZANELLATO UGO SA CS LA FECLAZ 27:34.4 01:41.8 142.45
21 25 21/U17 FFS2658787 2004 GAULIER AUBIN DA CS VILLARD 27:36.1 01:43.5 143.33
22 71 22/U17 FFS2673533 2004 TUILLIERE ANDEOL AP LES TROLLS 27:37.3 01:44.7 143.95
23 114 23/U17 FFS2658355 2004 DOUILLET BAPTISTE DA SN CHARTROUS 27:37.4 01:44.8 144.00
24 78 24/U17 FFS2666900 2004 JAN PIERRE MV GERARDMER SN 27:39.4 01:46.8 145.03
25 90 25/U17 FFS2665667 2003 SCHULTZ PAUL LY SC LE POIZAT 27:42.9 01:50.3 146.83
26 3 26/U17 FFS2677971 2003 MEYER GASPARD SA CS LA FECLAZ 27:45.1 01:52.5 147.97
27 84 27/U17 FFS2654597 2004 DESCAMPS AUBIN SA CS LA FECLAZ 27:46.3 01:53.7 148.59
28 13 28/U17 FFS2681664 2004 PERROUD DORIAN MB SCNP ROCHOIS 27:46.8 01:54.2 148.84
29 110 29/U17 FFS2664168 2004 VINCENT LENNIE MJ SKI ROUSSES 27:47.9 01:55.3 149.41
30 36 30/U17 FFS2661562 2003 CHATEAUNEUF OSCAR MJ BOIS D'AMONT 27:50.4 01:57.8 150.70
31 83 31/U17 FFS2664151 2004 CAILLOT FELIX DA SA MEAUDRAIS 27:53.4 02:00.8 152.24
32 79 32/U17 FFS2676437 2003 BAVEREL PIERRE MJ ES SAUGETTE 27:54.0 02:01.4 152.55
33 132 33/U17 FFS2671811 2003 TYRODE JOSSE MJ SC LESFOURGS 27:56.1 02:03.5 153.64
34 119 34/U17 FFS2682382 2003 BOURGON JULES MJ SC VERRIERES 27:58.0 02:05.4 154.61
35 54 35/U17 FFS2676127 2004 JARRIAND ELIO SA CS LA FECLAZ 27:59.7 02:07.1 155.49
36 106 36/U17 FFS2676994 2004 GENEST NOA AU SC MEZENC 28:01.9 02:09.3 156.62
37 96 37/U17 FFS2665905 2004 MAGINI ELOHANN LY CS VALROMEY 28:04.9 02:12.3 158.17
38 109 38/U17 FFS2665846 2004 SAGE MARTIN DA SN CHARTROUS 28:07.0 02:14.4 159.25
39 57 39/U17 FFS2659939 2004 PORRET EMIL DA US AUTRANNAI 28:07.7 02:15.1 159.61
40 118 40/U17 FFS2674908 2003 BRUNET JULIEN AP ORRES EMBRUN 28:12.5 02:19.9 162.09
41 51 41/U17 FFS2670598 2003 DORO AXEL SA CS LA FECLAZ 28:16.6 02:24.0 164.20
42 69 42/U17 FFS2687019 2004 LECOCQ CLEMENT AU CNAP 28:18.9 02:26.3 165.38
43 64 43/U17 FFS2670606 2003 SIMONOT ANTONIN SA CS LA FECLAZ 28:20.8 02:28.2 166.36
44 70 44/U17 FFS2686203 2004 MIGNOT BAPTISTE MJ SMBM/MORBIER 28:24.1 02:31.5 168.06
45 46 45/U17 FFS2666711 2004 DONET GAETAN DA SA MEAUDRAIS 28:27.2 02:34.6 169.66
46 33 46/U17 FFS2674515 2004 LANNE ANTOINE PE SC AZUN 28:29.3 02:36.7 170.74
47 88 47/U17 FFS2686207 2004 CHOLVY ARTHUR AU CN ST JULIEN 28:35.7 02:43.1 174.04
48 2 48/U17 FFS2661951 2004 SEROT HUGO SA SC BOZEL 28:36.5 02:43.9 174.45
49 74 49/U17 FFS2686357 2004 FAUVEL ROMAIN MV LAC BLANC SN 28:41.3 02:48.7 176.93
50 94 50/U17 FFS2677531 2004 RAULIN TIMOTHE AP ES VALLOUISE 28:47.7 02:55.1 180.22
51 62 51/U17 FFS2680999 2004 GRAND JULIEN MJ SC GRANDVAUX 28:50.5 02:57.9 181.67
51 92 51/U17 FFS2661244 2003 VERGNOLLE Titouan DA SN CHARTROUS 28:50.5 02:57.9 181.67
53 102 53/U17 FFS2681663 2004 LEVET GASTON MB SCNP ROCHOIS 28:56.1 03:03.5 184.55
54 58 54/U17 FFS2676774 2004 PETIOT PAUL AP ES VALLOUISE 28:57.6 03:05.0 185.32
55 100 55/U17 FFS2681916 2003 BERROT MARTIN MJ OYE-PALLET 28:59.0 03:06.4 186.05
56 38 56/U17 FFS2675595 2003 BOUVEROT ZIAN MB SC CONTAMINE 29:03.7 03:11.1 188.47
57 21 57/U17 FFS2648791 2004 FORTINA ADAM MB SC CONTAMINE 29:07.7 03:15.1 190.53
58 32 58/U17 FFS2687338 2004 RENAUD ALIX MJ DAMPRICHARD 29:12.5 03:19.9 193.00
59 26 59/U17 FFS2658036 2003 BARON BAPTISTE MB CS LA CLUSAZ 29:16.2 03:23.6 194.91
60 112 60/U17 FFS2682515 2004 TOURNIER GABIN MJ ES SAUGETTE 29:17.8 03:25.2 195.73
61 67 61/U17 FFS2686888 2004 PELLEGRINI NINO MJ OYE-PALLET 29:18.3 03:25.7 195.99
62 68 62/U17 FFS2681176 2003 VERDENET GASPARD MJ OYE-PALLET 29:19.0 03:26.4 196.35
63 48 63/U17 FFS2662962 2004 PANISSET SIMON MB SC GD BORNAN 29:20.7 03:28.1 197.23
64 87 64/U17 FFS2688059 2004 GUYETAND BASTIEN PE MONT ARG PVG 29:24.8 03:32.2 199.34
65 77 65/U17 FFS2690981 2004 BERLIOZ ANTHONY SA CS LA FECLAZ 29:28.9 03:36.3 201.45
66 72 66/U17 FFS2664007 2004 LERAY AWEN AU CNAP 29:31.5 03:38.9 202.79
67 27 67/U17 FFS2681190 2004 SCHMITT MILO MJ HT JURA SKI 29:36.3 03:43.7 205.26
68 19 68/U17 FFS2681694 2004 REBOULLET TOM MJ HT JURA SKI 29:37.1 03:44.5 205.68
69 66 69/U17 FFS2686392 2004 WERNER JOCELYN MV LAC BLANC SN 29:50.1 03:57.5 212.38
70 1 70/U17 FFS2686923 2004 JACQUES ALBAN MJ OYE-PALLET 29:56.8 04:04.2 215.83
71 9 71/U17 FFS2665219 2004 COSTE NIELS DA US AUTRANNAI 30:02.3 04:09.7 218.66
72 91 72/U17 FFS2676777 2004 FRIBOURG QUENTIN AP SAUZE BARCEL 30:19.1 04:26.5 227.32
73 49 73/U17 FFS2681002 2004 GONIN LEANDRE MB SC GD BORNAN 30:22.4 04:29.8 229.02
74 34 74/U17 FFS2678238 2004 FLEURY VICTOR PE CS FT ROMEU 30:25.4 04:32.8 230.56
75 30 75/U17 FFS2676581 2004 ROUX MATTEO AP MTGVE V.CLAR 30:28.0 04:35.4 231.90
76 5 76/U17 FFS2664257 2004 MOREL VICTOR MJ SKI ROUSSES 30:30.5 04:37.9 233.19
77 89 77/U17 FFS2665260 2004 TAGLIONE ENZO MJ SMBM/MORBIER 30:38.6 04:46.0 237.37
78 35 78/U17 FFS2678952 2004 FAVRE BONVIN TITOUAN MB SC GD BORNAN 30:46.7 04:54.1 241.54
79 20 79/U17 FFS2684607 2004 ADAM NINO MB CS CHAMONIX 30:54.9 05:02.3 245.76
80 16 80/U17 FFS2680253 2003 FERREIRA JUSTIN MB CS CHAMONIX 31:08.7 05:16.1 252.88
81 43 81/U17 FFS2692384 2004 BARBANCE MARCEAU CE SCM LOZERE 31:13.2 05:20.6 255.19
82 7 82/U17 FFS2676474 2004 CULLELL GAETAN PE CS FT ROMEU 31:30.4 05:37.8 264.06
83 56 83/U17 FFS2677438 2004 GLAVIEUX GUSTAVE MJ SMBM/MORBIER 31:33.3 05:40.7 265.55
84 76 84/U17 FFS2676099 2004 BLANCHET GASPARD SA CS LA FECLAZ 31:39.4 05:46.8 268.69
85 63 85/U17 FFS2676101 2004 CHEVRIER ANTONIN SA CS LA FECLAZ 31:39.9 05:47.3 268.95
86 15 86/U17 FFS2667079 2003 CHENU EMMANUEL SA SC PEISEY VA 31:45.0 05:52.4 271.58
87 8 87/U17 FFS2688655 2004 MOUCHET ZIAN MJ OYE-PALLET 33:44.7 07:52.1 333.26
Abandons
31 FFS2681037 2003 RENAUD JULES SA CS LA FECLAZ
59 FFS2681798 2004 SAVOIE GASTON MJ HT JURA SKI
Non partants
55 FFS2665901 2004 JACQUET GAEL LY CS VALROMEY
82 FFS2664963 2004 BOURDE MARTIN AU CNAP